Simultaneous Nadir Overpasses (SNOs) Predictions

Prediction of SNOs between GOES-15 and FY3D Satellite Orbit:

Table of predicted SNOs for the next 14.0 days since TLE Epoch: 10/12/2024
Index Date Time (GOES-15) GOES-15 Lat,Lon FY3D Lat,Lon Distance(km) Time Diff (sec)
1 10/13/2024 10:47:17 -0.13, 61.31 -0.81, 58.35 337.90 80
2 10/14/2024 10:31:18 -0.14, 61.32 0.21, 62.88 178.47 80
3 10/15/2024 22:53:13 0.11, 61.27 0.97, 57.62 417.71 80
4 10/16/2024 22:31:54 0.13, 61.28 -0.06, 62.14 97.81 80
5 10/19/2024 10:35:16 -0.12, 61.36 -0.14, 61.38 3.68 80
6 10/21/2024 22:38:31 0.10, 61.33 0.28, 60.65 78.42 80
7 10/22/2024 22:19:52 0.12, 61.35 -0.78, 65.17 436.50 80
8 10/24/2024 10:41:54 -0.08, 61.43 -0.41, 59.88 176.60 80
9 10/25/2024 10:25:53 -0.09, 61.44 0.56, 64.42 339.17 80
